Weather History for North Adams, MA

Change the Weather History Date:

Sunday, March 3, 2013

  Actual Average Record
Temperature  
Mean Temperature 26 °F -  
Max Temperature 28 °F 35 °F 52 °F (2008)
Min Temperature 23 °F 18 °F 1 °F (2003)
Degree Days  
Heating Degree Days 40    
Moisture  
Dew Point 17 °F    
Average Humidity 69    
Maximum Humidity 80    
Minimum Humidity 63    
Precipitation  
Precipitation 0.01 in - - ()
Sea Level Pressure  
Sea Level Pressure 29.70 in    
Wind  
Wind Speed 6 mph (WNW)    
Max Wind Speed 13 mph    
Max Gust Speed -    
Visibility 5 miles    
Events Snow    
Averages and records for this station are not official NWS values.
T = Trace of Precipitation, MM = Missing Value Source: NWS Daily Summary

Daily Weather History Graph

Daily Weather History Graph

Search for Another Location

Airport:

Trip Planner

Search our weather history database for the weather conditions in past years. The results will help you decide how hot, cold, wet, or windy it might be!

Date:

Astronomy

Mar. 03, 2013 Rise Set
Actual Time 6:24 AM EST 5:45 PM EST
Civil Twilight 5:56 AM EST 6:13 PM EST
Nautical Twilight 5:23 AM EST 6:45 PM EST
Astronomical Twilight 4:51 AM EST 7:18 PM EST
Moon No Moon Rise 9:28 AM EST (3/3)
Length of Visible Light 12h 16m
Length of Day
11h 20m
Waning Gibbous, 64% of the Moon is Illuminated
Mar 3
Waning Gibbous
Mar 4
Last Quarter
Mar 11
New
Mar 19
First Quarter
Mar 27
Full

Hourly Weather History & Observations

Time (EST) Temp. Windchill Dew Point Humidity Pressure Visibility Wind Dir Wind Speed Gust Speed Precip Events Conditions
1:52 AM 26.1 °F 20.5 °F 18.0 °F 71% 29.72 in 10.0 mi West 4.6 mph - N/A   Overcast
2:49 AM 24.8 °F 16.9 °F 17.6 °F 74% 29.69 in 10.0 mi WNW 6.9 mph - N/A   Overcast
2:52 AM 25.0 °F 18.1 °F 18.0 °F 75% 29.71 in 10.0 mi Variable 5.8 mph - N/A   Overcast
3:52 AM 25.0 °F 18.1 °F 18.0 °F 75% 29.70 in 10.0 mi WNW 5.8 mph - N/A   Overcast
4:41 AM 24.8 °F 17.9 °F 15.8 °F 69% 29.69 in 10.0 mi Variable 5.8 mph - N/A   Overcast
4:52 AM 24.1 °F 16.0 °F 15.1 °F 69% 29.71 in 10.0 mi NW 6.9 mph - N/A   Overcast
5:52 AM 24.1 °F 18.2 °F 16.0 °F 71% 29.72 in 10.0 mi WNW 4.6 mph - N/A   Overcast
7:36 AM 23.0 °F 18.4 °F 15.8 °F 74% 29.71 in 2.0 mi Variable 3.5 mph - 0.00 in Snow Light Snow
7:43 AM 23.0 °F - 15.8 °F 74% 29.71 in 1.5 mi Calm Calm - 0.00 in Snow Light Snow
7:52 AM 23.0 °F 17.0 °F 15.1 °F 72% 29.74 in 1.8 mi WNW 4.6 mph - 0.00 in Snow Light Snow
8:10 AM 23.0 °F 17.0 °F 15.8 °F 74% 29.71 in 1.0 mi WNW 4.6 mph - 0.00 in Snow Light Snow
8:18 AM 23.0 °F 15.8 °F 15.8 °F 74% 29.71 in 0.8 mi WNW 5.8 mph - 0.00 in Snow Light Snow
9:22 AM 23.0 °F 17.0 °F 17.6 °F 80% 29.70 in 1.2 mi Variable 4.6 mph - 0.01 in Snow Light Snow
9:40 AM 24.8 °F 17.9 °F 15.8 °F 69% 29.70 in 1.8 mi West 5.8 mph - 0.01 in Snow Light Snow
9:52 AM 24.1 °F 18.2 °F 16.0 °F 71% 29.73 in 2.0 mi West 4.6 mph - 0.01 in Snow Light Snow
10:05 AM 24.8 °F 19.1 °F 15.8 °F 69% 29.69 in 3.0 mi Variable 4.6 mph - 0.00 in Snow Light Snow
10:38 AM 26.6 °F 21.2 °F 15.8 °F 64% 29.69 in 2.5 mi Variable 4.6 mph - 0.00 in Snow Light Snow
10:50 AM 26.6 °F 20.0 °F 15.8 °F 64% 29.69 in 5.0 mi Variable 5.8 mph - 0.00 in Snow Light Snow
10:52 AM 26.1 °F 19.4 °F 16.0 °F 66% 29.72 in 6.0 mi Variable 5.8 mph - 0.00 in   Haze
11:36 AM 26.6 °F 22.6 °F 15.8 °F 64% 29.69 in 4.0 mi Variable 3.5 mph - 0.00 in Snow Light Snow
11:52 AM 27.0 °F 20.5 °F 17.1 °F 66% 29.71 in 4.0 mi NW 5.8 mph - 0.00 in Snow Light Snow
12:28 PM 26.6 °F 19.1 °F 17.6 °F 69% 29.67 in 2.0 mi Variable 6.9 mph - 0.00 in Snow Light Snow
12:38 PM 28.4 °F 22.2 °F 17.6 °F 64% 29.67 in 4.0 mi WNW 5.8 mph - 0.00 in Snow Light Snow
12:43 PM 26.6 °F 20.0 °F 17.6 °F 69% 29.67 in 1.8 mi WNW 5.8 mph - 0.00 in Snow Light Snow
12:52 PM 28.0 °F 20.8 °F 19.0 °F 69% 29.69 in 1.0 mi Variable 6.9 mph - 0.00 in Snow Light Snow
1:02 PM 28.4 °F 23.3 °F 17.6 °F 64% 29.66 in 2.0 mi Variable 4.6 mph - 0.00 in Snow Light Snow
1:12 PM 28.4 °F 21.2 °F 17.6 °F 64% 29.66 in 5.0 mi Variable 6.9 mph - 0.00 in Snow Light Snow
1:52 PM 28.0 °F 20.0 °F 18.0 °F 66% 29.68 in 7.0 mi WNW 8.1 mph - 0.00 in Snow Light Snow
2:52 PM 28.0 °F 20.8 °F 18.0 °F 66% 29.68 in 6.0 mi Variable 6.9 mph - 0.00 in Snow Light Snow
3:08 PM 28.4 °F 21.2 °F 19.4 °F 69% 29.65 in 1.8 mi West 6.9 mph - 0.00 in Snow Light Snow
3:32 PM 28.4 °F 23.3 °F 19.4 °F 69% 29.65 in 2.0 mi Variable 4.6 mph - 0.00 in Snow Light Snow
3:44 PM 28.4 °F 22.2 °F 19.4 °F 69% 29.65 in 4.0 mi WNW 5.8 mph - 0.00 in Snow Light Snow
3:52 PM 28.0 °F 22.8 °F 19.9 °F 72% 29.68 in 2.5 mi WNW 4.6 mph - 0.00 in Snow Light Snow
4:06 PM 28.4 °F 20.4 °F 19.4 °F 69% 29.65 in 6.0 mi West 8.1 mph - 0.00 in Snow Light Snow
5:52 PM 28.0 °F 19.3 °F 19.0 °F 69% 29.70 in 5.0 mi West 9.2 mph - 0.00 in Snow Light Snow
6:52 PM 27.0 °F 18.7 °F 18.0 °F 69% 29.71 in 7.0 mi West 8.1 mph - 0.00 in Snow Light Snow
7:52 PM 27.0 °F 17.3 °F 16.0 °F 63% 29.72 in 10.0 mi West 10.4 mph - 0.00 in   Overcast
8:52 PM 26.1 °F 15.6 °F 15.1 °F 63% 29.73 in 10.0 mi WSW 11.5 mph - N/A   Overcast
9:52 PM 25.0 °F 14.8 °F 15.1 °F 66% 29.73 in 10.0 mi West 10.4 mph - N/A   Overcast
10:52 PM 24.1 °F 12.5 °F 14.0 °F 65% 29.73 in 10.0 mi West 12.7 mph - N/A   Overcast
11:52 PM 24.1 °F 15.2 °F 14.0 °F 65% 29.73 in 10.0 mi West 8.1 mph - N/A   Overcast